COSMOS 2251 DEB, 34576

Orbit data source: Space-Track

COSMOS 2251 DEB, 34576 is space debris in LEO originally from a launch on Wed, 16 Jun 1993 UTC launched from the Plesetsk Missile And Space Complex (PKMTR). The debris from Iridium 33, an American commercial communications satellite, has been tracked extensively since its accidental collision with the defunct Russian satellite Cosmos 2251 in 2009. This event, occurring at high speed in low Earth orbit (LEO), generated thousands of pieces of space debris, significantly increasing the risk of further collisions. The Iridium 33 debris cloud has impacted space traffic management and orbital debris mitigation strategies, making it a subject of ongoing study in space situational awareness.

Loading next visibility...
Identifier
34576, 1993-036VN
Orbit
LEO
Country
Flag of CISCIS
Related business
Manufacturer
Unknown
Mission
Spacecraft
Bus & Motor
Unknown
Mass
Unknown
Launch date (UTC)
1993-06-16 (33 years ago)
Launch vehicle
Unknown
Launch site
Plesetsk Missile And Space Complex (PKMTR)
Object type
Payload
Rocket body
Debris
Shape & HBR
Unknown shape, 0.1 m
Radar Cross Section
Medium (>0.1 m² and <1 m²)

Expand to show TLE details & history
Last TLE update: 2 days ago

TLE from 2 days ago
0 COSMOS 2251 DEB
1 34576U 93036VN  26161.73549772  .00002193  00000-0  49831-3 0  9999
2 34576  74.0325 156.8323 0009390 250.5564 282.7820 14.56582546910863
Epoch: 2026-06-10T17:39Z
TLE epoch observation values (Epoch: 2026-06-10T17:39:07.003Z)
Latitude
6.4327°
Longitude
171.12499°
Altitude
704.795 km
Speed
7.505 km/s
True Right ascension
22h 19m 58s
True Declination
6° 23' 39"
Sunlit
Object was in daylight at epoch
Visualization orbit readout
Latitude
Unknown
Longitude
Unknown
Altitude
Unknown
Speed
Unknown
Apparent Right ascension
Unknown
Apparent Declination
Unknown
Sunlit
N/A
Visualization observer readout
Local Sidereal Time
16:57:36
Azimuth
Unknown
Elevation
Unknown
Doppler factor
Unknown
Orbital elements
Apogee altitude
708.48 km
Perigee altitude
695.184 km
Semi-major axis
7,079.969 km
Eccentricity
0.00094
Inclination
74.0325°
RAAN
156.8323°
Arg. of periapsis
250.5564°
True anomaly
282.67704°
Mean anomaly
282.782°
Eccentric anomaly
282.72952°
Mean motion
3.64331 °/min
Orbital period
98.81 mins
BSTAR
0.00049831
Loading maneuver chart data...
Computing Atmospheric mass density...

Documentation

Showing up to 5 results
|